Simultaneous Nadir Overpasses (SNOs) Predictions

Prediction of SNOs between GOES-14 and NPP Satellite Orbit:

Table of predicted SNOs for the next 14.0 days since TLE Epoch: 7/27/2024
Index Date Time (GOES-14) GOES-14 Lat,Lon NPP Lat,Lon Distance(km) Time Diff (sec)
1 07/27/2024 20:30:31 0.32,-108.45 0.85,-106.21 255.70 80
2 07/29/2024 08:49:40 -0.36,-108.49 0.30,-111.49 342.22 80
3 07/30/2024 08:33:36 -0.35,-108.48 -0.68,-106.96 173.63 80
4 07/31/2024 20:52:54 0.38,-108.44 -0.47,-112.28 437.63 80
5 08/01/2024 20:36:49 0.37,-108.44 0.51,-107.74 78.66 80
6 08/04/2024 08:37:14 -0.39,-108.48 -0.36,-108.49 3.65 80
7 08/06/2024 20:40:28 0.41,-108.43 0.20,-109.28 96.71 80
8 08/07/2024 20:24:24 0.39,-108.44 1.19,-104.74 420.12 80
9 08/09/2024 08:43:33 -0.42,-108.49 -0.07,-110.03 175.69 80
